Voltar ao catálogo

CZ-2D DEB

AtivoSSO
NORAD 38179·DEBRIS·🇨🇳 China

Lançado Nov 20, 2011 de Jiuquan Satellite Launch Center

Loading…

Próximas Passagens (próximas 24 horas)

TLE

AtualizadoSource: Space-Track

Época: Sep 12, 2026, 07:14 UTC

1 38179U 11068G   26255.30158831  .00000477  00000-0  21228-3 0  9999
2 38179  98.8283 279.1082 0126891 203.0625 218.9237 14.23282737765382

Acompanhe CZ-2D DEB em tempo real com AllMySat

Download on the App Store